DLH4245 OKKK-OMDB

Flight info

Callsign DLH4245
Flight time 1h 16m
Altitude 41000
Route SESRU M677 VUTEB
Aircraft A333/H-SDE3GHIJ2J3J5M1RVWXY/LB2D1

Departure

Time 2026-05-08 11:20
Airport Kuwait International Airport (OKKK)

Arrival

Time 2026-05-08 12:37
Airport Dubai International Airport (OMDB)
Time Latitude Longitude Altitude Speed Heading
2026-05-08 10:51 29.22584 47.95993 156 ft 0 kts 156°
2026-05-08 11:07 29.22600 47.95984 156 ft 2 kts 156°
2026-05-08 11:07 29.22614 47.95977 156 ft 2 kts 155°
2026-05-08 11:08 29.22628 47.95970 156 ft 1 kts 155°
2026-05-08 11:08 29.22636 47.95966 156 ft 2 kts 150°
2026-05-08 11:08 29.22648 47.95955 156 ft 2 kts 128°
2026-05-08 11:08 29.22656 47.95941 156 ft 2 kts 111°
2026-05-08 11:09 29.22660 47.95925 156 ft 2 kts 93°
2026-05-08 11:09 29.22659 47.95908 156 ft 2 kts 76°
2026-05-08 11:09 29.22657 47.95897 156 ft 0 kts 64°
2026-05-08 11:09 29.22655 47.95893 156 ft 0 kts 64°
2026-05-08 11:12 29.22662 47.95911 156 ft 7 kts 65°
2026-05-08 11:12 29.22696 47.95995 155 ft 15 kts 65°
2026-05-08 11:13 29.22756 47.96144 152 ft 24 kts 64°
2026-05-08 11:13 29.22838 47.96347 153 ft 30 kts 65°
2026-05-08 11:13 29.22953 47.96484 152 ft 9 kts
2026-05-08 11:13 29.23009 47.96506 153 ft 0 kts 46°
2026-05-08 11:14 29.23009 47.96507 153 ft 0 kts 46°
2026-05-08 11:15 29.23020 47.96524 152 ft 6 kts 58°
2026-05-08 11:15 29.23022 47.96526 152 ft 0 kts 59°
2026-05-08 11:16 29.23025 47.96534 152 ft 5 kts 61°
2026-05-08 11:16 29.23062 47.96619 153 ft 17 kts 65°
2026-05-08 11:17 29.23119 47.96762 153 ft 20 kts 65°
2026-05-08 11:17 29.23132 47.96793 153 ft 3 kts 65°
2026-05-08 11:17 29.23103 47.96899 155 ft 25 kts 146°
2026-05-08 11:17 29.22900 47.97011 159 ft 38 kts 155°
2026-05-08 11:18 29.22624 47.97158 163 ft 46 kts 153°
2026-05-08 11:18 29.22336 47.97312 168 ft 44 kts 155°
2026-05-08 11:18 29.22061 47.97458 171 ft 42 kts 154°
2026-05-08 11:18 29.21779 47.97603 173 ft 46 kts 154°
2026-05-08 11:19 29.21487 47.97764 178 ft 46 kts 155°
2026-05-08 11:19 29.21291 47.97844 181 ft 14 kts 202°
2026-05-08 11:19 29.21250 47.97749 179 ft 17 kts 278°
2026-05-08 11:19 29.21369 47.97576 178 ft 37 kts 336°
2026-05-08 11:20 29.21756 47.97369 173 ft 95 kts 335°
2026-05-08 11:20 29.22561 47.96932 163 ft 156 kts 330°
2026-05-08 11:20 29.23646 47.96347 487 ft 176 kts 333°
2026-05-08 11:20 29.24729 47.95825 959 ft 170 kts 335°
2026-05-08 11:21 29.25827 47.95275 1433 ft 174 kts 333°
2026-05-08 11:21 29.26921 47.94628 1987 ft 180 kts 333°
2026-05-08 11:21 29.28087 47.93964 2410 ft 198 kts 336°
2026-05-08 11:21 29.29412 47.93334 2829 ft 217 kts 340°
2026-05-08 11:22 29.30784 47.92634 3660 ft 214 kts 344°
2026-05-08 11:22 29.32202 47.92638 4553 ft 208 kts 18°
2026-05-08 11:22 29.33339 47.93593 5266 ft 212 kts 54°
2026-05-08 11:22 29.33842 47.95175 5886 ft 216 kts 85°
2026-05-08 11:23 29.33816 47.96903 6395 ft 225 kts 98°
2026-05-08 11:23 29.33570 47.98782 6973 ft 246 kts 102°
2026-05-08 11:23 29.33231 48.00725 7455 ft 260 kts 104°
2026-05-08 11:23 29.32830 48.02830 7892 ft 277 kts 104°
2026-05-08 11:24 29.32398 48.05031 8274 ft 296 kts 104°
2026-05-08 11:24 29.31934 48.07384 8835 ft 308 kts 104°
2026-05-08 11:24 29.31457 48.09791 9614 ft 310 kts 104°
2026-05-08 11:24 29.30984 48.12174 10388 ft 312 kts 104°
2026-05-08 11:25 29.30502 48.14601 11154 ft 315 kts 104°
2026-05-08 11:25 29.30018 48.17030 11945 ft 317 kts 104°
2026-05-08 11:25 29.29528 48.19495 12677 ft 321 kts 103°
2026-05-08 11:25 29.29033 48.21980 13371 ft 325 kts 103°
2026-05-08 11:26 29.28527 48.24525 14080 ft 329 kts 104°
2026-05-08 11:26 29.28017 48.27083 14710 ft 334 kts 104°
2026-05-08 11:26 29.27485 48.29738 14915 ft 343 kts 104°
2026-05-08 11:26 29.26956 48.32384 14842 ft 337 kts 104°
2026-05-08 11:27 29.26439 48.34959 14900 ft 334 kts 104°
2026-05-08 11:27 29.25915 48.37574 14894 ft 337 kts 104°
2026-05-08 11:27 29.25393 48.40170 14930 ft 338 kts 104°
2026-05-08 11:27 29.24855 48.42855 15554 ft 343 kts 105°
2026-05-08 11:28 29.24332 48.45461 16378 ft 342 kts 105°
2026-05-08 11:28 29.23786 48.48165 16918 ft 349 kts 105°
2026-05-08 11:28 29.23241 48.50872 17601 ft 352 kts 106°
2026-05-08 11:28 29.22691 48.53603 18226 ft 355 kts 107°
2026-05-08 11:29 29.22132 48.56355 18875 ft 358 kts 107°
2026-05-08 11:29 29.21571 48.59131 19520 ft 360 kts 107°
2026-05-08 11:29 29.21005 48.61924 20103 ft 363 kts 108°
2026-05-08 11:29 29.20439 48.64716 20731 ft 364 kts 108°
2026-05-08 11:30 29.19861 48.67565 21377 ft 365 kts 109°
2026-05-08 11:30 29.19286 48.70387 21863 ft 369 kts 109°
2026-05-08 11:30 29.18708 48.73230 22368 ft 372 kts 109°
2026-05-08 11:30 29.18117 48.76133 22966 ft 373 kts 109°
2026-05-08 11:31 29.17516 48.79064 23151 ft 386 kts 110°
2026-05-08 11:31 29.16896 48.82095 23278 ft 400 kts 109°
2026-05-08 11:31 29.16258 48.85204 23419 ft 413 kts 109°
2026-05-08 11:31 29.15580 48.88444 23553 ft 422 kts 112°
2026-05-08 11:32 29.14354 48.91486 23661 ft 419 kts 130°
2026-05-08 11:32 29.12423 48.93923 23795 ft 416 kts 145°
2026-05-08 11:32 29.10184 48.96085 23944 ft 425 kts 145°
2026-05-08 11:32 29.07906 48.98301 24070 ft 434 kts 145°
2026-05-08 11:33 29.05605 49.00542 24195 ft 442 kts 145°
2026-05-08 11:33 29.03231 49.02855 24341 ft 449 kts 145°
2026-05-08 11:33 29.00877 49.05153 24691 ft 441 kts 145°
2026-05-08 11:33 28.98550 49.07418 25029 ft 443 kts 146°
2026-05-08 11:34 28.96188 49.09711 25146 ft 450 kts 146°
2026-05-08 11:34 28.93812 49.12023 25503 ft 449 kts 146°
2026-05-08 11:34 28.91445 49.14325 25998 ft 445 kts 146°
2026-05-08 11:34 28.89099 49.16603 26491 ft 444 kts 147°
2026-05-08 11:35 28.86724 49.18823 26982 ft 438 kts 150°
2026-05-08 11:35 28.84416 49.21129 27496 ft 444 kts 143°
2026-05-08 11:35 28.82205 49.23532 28294 ft 435 kts 145°
2026-05-08 11:35 28.80001 49.25837 29098 ft 433 kts 146°
2026-05-08 11:36 28.77794 49.28116 29887 ft 431 kts 147°
2026-05-08 11:36 28.75579 49.30392 30683 ft 428 kts 147°
2026-05-08 11:36 28.73369 49.32658 31474 ft 425 kts 148°
2026-05-08 11:36 28.71178 49.34902 32262 ft 420 kts 148°
2026-05-08 11:37 28.69060 49.37070 32971 ft 414 kts 148°
2026-05-08 11:37 28.66892 49.39276 33073 ft 423 kts 148°
2026-05-08 11:37 28.64658 49.41556 33223 ft 431 kts 148°
2026-05-08 11:37 28.62411 49.43851 33387 ft 438 kts 148°
2026-05-08 11:38 28.60268 49.46402 33524 ft 460 kts 136°
2026-05-08 11:38 28.58550 49.49573 33641 ft 475 kts 130°
2026-05-08 11:38 28.56867 49.52782 33808 ft 479 kts 130°
2026-05-08 11:38 28.54981 49.55923 33952 ft 473 kts 137°
2026-05-08 11:39 28.53112 49.59047 34135 ft 484 kts 131°
2026-05-08 11:39 28.51372 49.62292 34305 ft 489 kts 130°
2026-05-08 11:39 28.49640 49.65640 34458 ft 492 kts 130°
2026-05-08 11:39 28.47925 49.68996 34670 ft 493 kts 130°
2026-05-08 11:40 28.46244 49.72296 34893 ft 493 kts 130°
2026-05-08 11:40 28.44522 49.75673 35057 ft 494 kts 129°
2026-05-08 11:40 28.42779 49.79021 35198 ft 490 kts 133°
2026-05-08 11:40 28.40585 49.81873 35381 ft 468 kts 148°
2026-05-08 11:41 28.38001 49.84022 35610 ft 458 kts 155°
2026-05-08 11:41 28.35394 49.86041 35773 ft 458 kts 155°
2026-05-08 11:41 28.32749 49.88070 35996 ft 457 kts 155°
2026-05-08 11:41 28.30095 49.90093 36196 ft 457 kts 155°
2026-05-08 11:42 28.27453 49.92102 36352 ft 458 kts 155°
2026-05-08 11:42 28.24818 49.94105 36514 ft 459 kts 155°
2026-05-08 11:42 28.22159 49.96124 36720 ft 458 kts 155°
2026-05-08 11:42 28.19543 49.98109 36910 ft 458 kts 155°
2026-05-08 11:43 28.16909 50.00106 37092 ft 458 kts 155°
2026-05-08 11:43 28.14287 50.02092 37246 ft 458 kts 155°
2026-05-08 11:43 28.11608 50.04122 37391 ft 458 kts 155°
2026-05-08 11:43 28.08990 50.06104 37552 ft 459 kts 155°
2026-05-08 11:44 28.06366 50.08089 37693 ft 459 kts 155°
2026-05-08 11:44 28.03723 50.10086 37876 ft 458 kts 155°
2026-05-08 11:44 28.01074 50.12089 38051 ft 457 kts 155°
2026-05-08 11:44 27.98467 50.14057 38194 ft 457 kts 155°
2026-05-08 11:45 27.95795 50.16074 38333 ft 457 kts 155°
2026-05-08 11:45 27.93196 50.18034 38481 ft 456 kts 155°
2026-05-08 11:45 27.90548 50.20032 38608 ft 457 kts 155°
2026-05-08 11:45 27.87946 50.21990 38755 ft 456 kts 155°
2026-05-08 11:46 27.85302 50.23982 38918 ft 456 kts 155°
2026-05-08 11:46 27.82694 50.25943 39080 ft 456 kts 155°
2026-05-08 11:46 27.80086 50.27906 39249 ft 455 kts 155°
2026-05-08 11:46 27.77442 50.29893 39411 ft 454 kts 155°
2026-05-08 11:47 27.74811 50.31869 39569 ft 454 kts 155°
2026-05-08 11:47 27.72204 50.33825 39730 ft 453 kts 155°
2026-05-08 11:47 27.69583 50.35792 39891 ft 452 kts 155°
2026-05-08 11:47 27.66983 50.37743 40089 ft 451 kts 155°
2026-05-08 11:48 27.64376 50.39698 40131 ft 443 kts 155°
2026-05-08 11:48 27.61799 50.41638 40294 ft 444 kts 155°
2026-05-08 11:48 27.59224 50.43617 40461 ft 444 kts 154°
2026-05-08 11:48 27.56724 50.45535 40619 ft 444 kts 154°
2026-05-08 11:49 27.54138 50.47516 40784 ft 443 kts 154°
2026-05-08 11:49 27.49021 50.51434 40838 ft 448 kts 154°
2026-05-08 11:50 27.43873 50.55372 40851 ft 451 kts 154°
2026-05-08 11:50 27.38653 50.59362 40846 ft 454 kts 154°
2026-05-08 11:51 27.33438 50.63343 40851 ft 456 kts 154°
2026-05-08 11:51 27.28193 50.67343 40832 ft 458 kts 154°
2026-05-08 11:52 27.22920 50.71360 40826 ft 458 kts 154°
2026-05-08 11:52 27.17634 50.75380 40827 ft 458 kts 154°
2026-05-08 11:53 27.12683 50.79949 40871 ft 470 kts 142°
2026-05-08 11:53 27.08102 50.85136 40830 ft 470 kts 143°
2026-05-08 11:54 27.03531 50.90304 40821 ft 471 kts 142°
2026-05-08 11:54 26.99217 50.95757 40810 ft 484 kts 129°
2026-05-08 11:55 26.95743 51.02080 40798 ft 485 kts 129°
2026-05-08 11:55 26.92233 51.08423 40821 ft 485 kts 129°
2026-05-08 11:56 26.88698 51.14798 40824 ft 486 kts 129°
2026-05-08 11:56 26.87093 51.18076 40797 ft 496 kts 118°
2026-05-08 11:56 26.85975 51.21743 40870 ft 499 kts 115°
2026-05-08 11:57 26.83788 51.29068 40834 ft 501 kts 115°
2026-05-08 11:57 26.81582 51.36431 40822 ft 502 kts 115°
2026-05-08 11:58 26.79376 51.43772 40807 ft 503 kts 115°
2026-05-08 11:58 26.77174 51.51094 40818 ft 503 kts 115°
2026-05-08 11:59 26.73811 51.62241 40802 ft 504 kts 115°
2026-05-08 11:59 26.71587 51.69661 40788 ft 503 kts 115°
2026-05-08 12:00 26.69368 51.77063 40785 ft 503 kts 115°
2026-05-08 12:00 26.67147 51.84455 40790 ft 503 kts 115°
2026-05-08 12:01 26.64897 51.91830 40792 ft 501 kts 116°
2026-05-08 12:01 26.62522 51.99110 40785 ft 500 kts 116°
2026-05-08 12:02 26.60161 52.06359 40778 ft 500 kts 116°
2026-05-08 12:02 26.57787 52.13633 40782 ft 500 kts 116°
2026-05-08 12:03 26.55408 52.20905 40788 ft 500 kts 116°
2026-05-08 12:03 26.53034 52.28151 40788 ft 500 kts 116°
2026-05-08 12:04 26.50672 52.35341 40785 ft 500 kts 116°
2026-05-08 12:04 26.48309 52.42531 40788 ft 500 kts 116°
2026-05-08 12:05 26.45922 52.49767 40785 ft 500 kts 116°
2026-05-08 12:05 26.43541 52.56977 40784 ft 501 kts 116°
2026-05-08 12:06 26.41152 52.64198 40783 ft 501 kts 116°
2026-05-08 12:06 26.38808 52.71270 40774 ft 501 kts 116°
2026-05-08 12:07 26.36412 52.78490 40772 ft 500 kts 116°
2026-05-08 12:07 26.34038 52.85616 40758 ft 501 kts 116°
2026-05-08 12:08 26.31602 52.92918 40755 ft 501 kts 116°
2026-05-08 12:08 26.29167 53.00201 40754 ft 500 kts 116°
2026-05-08 12:09 26.26740 53.07444 40750 ft 500 kts 115°
2026-05-08 12:09 26.24320 53.14657 40750 ft 500 kts 115°
2026-05-08 12:10 26.21907 53.21831 40755 ft 500 kts 115°
2026-05-08 12:10 26.19488 53.29008 40745 ft 500 kts 115°
2026-05-08 12:11 26.16905 53.36104 40781 ft 496 kts 120°
2026-05-08 12:11 26.14043 53.43100 40759 ft 497 kts 119°
2026-05-08 12:12 26.11194 53.50106 40752 ft 497 kts 119°
2026-05-08 12:12 26.08374 53.57038 40763 ft 498 kts 119°
2026-05-08 12:13 26.05553 53.63953 40765 ft 498 kts 119°
2026-05-08 12:13 26.02745 53.70833 40778 ft 498 kts 120°
2026-05-08 12:14 25.99929 53.77813 40738 ft 499 kts 118°
2026-05-08 12:14 25.97144 53.84920 40676 ft 500 kts 118°
2026-05-08 12:15 25.94404 53.91899 40362 ft 491 kts 118°
2026-05-08 12:15 25.93067 53.95295 39267 ft 493 kts 118°
2026-05-08 12:15 25.91701 53.98737 37946 ft 496 kts 120°
2026-05-08 12:16 25.90207 54.02101 36824 ft 495 kts 121°
2026-05-08 12:16 25.88675 54.05553 35662 ft 496 kts 120°
2026-05-08 12:16 25.87197 54.08888 34447 ft 498 kts 120°
2026-05-08 12:16 25.85693 54.12280 33168 ft 500 kts 120°
2026-05-08 12:17 25.84150 54.15757 31915 ft 503 kts 119°
2026-05-08 12:17 25.82612 54.19223 30761 ft 503 kts 119°
2026-05-08 12:17 25.81268 54.22849 29533 ft 506 kts 111°
2026-05-08 12:17 25.80143 54.26522 28288 ft 506 kts 111°
2026-05-08 12:18 25.79006 54.30197 26876 ft 509 kts 111°
2026-05-08 12:18 25.77863 54.33875 25642 ft 502 kts 111°
2026-05-08 12:18 25.76778 54.37351 25179 ft 459 kts 111°
2026-05-08 12:18 25.75765 54.40627 23769 ft 448 kts 111°
2026-05-08 12:19 25.74765 54.43835 22035 ft 446 kts 110°
2026-05-08 12:19 25.73749 54.47094 20711 ft 455 kts 110°
2026-05-08 12:19 25.72729 54.50368 19998 ft 448 kts 110°
2026-05-08 12:19 25.71730 54.53572 19701 ft 431 kts 110°
2026-05-08 12:20 25.70772 54.56635 19514 ft 414 kts 110°
2026-05-08 12:20 25.69829 54.59645 18778 ft 413 kts 110°
2026-05-08 12:20 25.68876 54.62625 17969 ft 413 kts 111°
2026-05-08 12:20 25.67922 54.65599 17193 ft 412 kts 111°
2026-05-08 12:21 25.66978 54.68546 16355 ft 412 kts 111°
2026-05-08 12:21 25.66030 54.71499 15768 ft 391 kts 111°
2026-05-08 12:21 25.65151 54.74237 14801 ft 374 kts 111°
2026-05-08 12:21 25.64292 54.76908 13363 ft 371 kts 112°
2026-05-08 12:22 25.63445 54.79538 12582 ft 361 kts 112°
2026-05-08 12:22 25.62610 54.82127 12127 ft 355 kts 112°
2026-05-08 12:22 25.61787 54.84678 11209 ft 351 kts 111°
2026-05-08 12:22 25.60914 54.87246 9866 ft 375 kts 115°
2026-05-08 12:23 25.59868 54.89903 9771 ft 375 kts 114°
2026-05-08 12:23 25.58837 54.92549 9851 ft 376 kts 114°
2026-05-08 12:23 25.57813 54.95173 9670 ft 369 kts 114°
2026-05-08 12:23 25.56824 54.97718 9765 ft 347 kts 114°
2026-05-08 12:24 25.55885 55.00127 9734 ft 339 kts 114°
2026-05-08 12:24 25.54951 55.02520 9554 ft 333 kts 114°
2026-05-08 12:24 25.53949 55.04818 8895 ft 338 kts 118°
2026-05-08 12:24 25.52800 55.07114 8249 ft 341 kts 120°
2026-05-08 12:25 25.51610 55.09388 7741 ft 342 kts 120°
2026-05-08 12:25 25.50437 55.11610 7773 ft 327 kts 120°
2026-05-08 12:25 25.49312 55.13738 7761 ft 318 kts 120°
2026-05-08 12:25 25.48198 55.15839 7669 ft 315 kts 120°
2026-05-08 12:26 25.47102 55.17906 7756 ft 301 kts 120°
2026-05-08 12:26 25.46043 55.19844 8012 ft 296 kts 125°
2026-05-08 12:26 25.44700 55.21552 7943 ft 296 kts 133°
2026-05-08 12:26 25.43320 55.23239 7999 ft 295 kts 132°
2026-05-08 12:27 25.41937 55.24936 8005 ft 295 kts 132°
2026-05-08 12:27 25.40554 55.26635 8000 ft 295 kts 132°
2026-05-08 12:27 25.39194 55.28304 8008 ft 295 kts 132°
2026-05-08 12:27 25.37805 55.30008 7994 ft 295 kts 132°
2026-05-08 12:28 25.36439 55.31685 7999 ft 295 kts 132°
2026-05-08 12:28 25.34848 55.33140 7992 ft 295 kts 151°
2026-05-08 12:28 25.33007 55.34200 8013 ft 296 kts 152°
2026-05-08 12:28 25.31205 55.35257 7847 ft 292 kts 152°
2026-05-08 12:29 25.29402 55.36314 7448 ft 294 kts 152°
2026-05-08 12:29 25.27578 55.37383 7094 ft 295 kts 152°
2026-05-08 12:29 25.25779 55.38437 6792 ft 293 kts 152°
2026-05-08 12:29 25.23972 55.39495 6489 ft 291 kts 152°
2026-05-08 12:30 25.22185 55.40541 6169 ft 290 kts 152°
2026-05-08 12:30 25.20400 55.41586 5912 ft 287 kts 152°
2026-05-08 12:30 25.18687 55.42588 5926 ft 273 kts 152°
2026-05-08 12:30 25.17094 55.43520 5907 ft 262 kts 152°
2026-05-08 12:31 25.15495 55.44455 5843 ft 253 kts 152°
2026-05-08 12:31 25.13906 55.45384 5341 ft 266 kts 152°
2026-05-08 12:31 25.12238 55.46360 4984 ft 269 kts 151°
2026-05-08 12:31 25.10849 55.47638 4977 ft 255 kts 125°
2026-05-08 12:32 25.09923 55.49259 4908 ft 246 kts 120°
2026-05-08 12:32 25.09022 55.50869 4634 ft 244 kts 118°
2026-05-08 12:32 25.08535 55.52632 4114 ft 243 kts 87°
2026-05-08 12:32 25.08950 55.54411 3653 ft 236 kts 53°
2026-05-08 12:33 25.10065 55.55610 3450 ft 217 kts 25°
2026-05-08 12:33 25.11469 55.56019 3187 ft 203 kts 352°
2026-05-08 12:33 25.12816 55.55564 2855 ft 198 kts 333°
2026-05-08 12:33 25.14043 55.54931 2644 ft 194 kts 332°
2026-05-08 12:34 25.15308 55.54388 2331 ft 197 kts 343°
2026-05-08 12:34 25.16384 55.53506 2019 ft 196 kts 304°
2026-05-08 12:34 25.17479 55.52503 1574 ft 225 kts 336°
2026-05-08 12:34 25.18884 55.51584 1807 ft 245 kts 307°
2026-05-08 12:35 25.19653 55.49765 1726 ft 276 kts 285°
2026-05-08 12:35 25.20101 55.47695 1697 ft 260 kts 286°
2026-05-08 12:35 25.20716 55.45945 1521 ft 237 kts 294°
2026-05-08 12:35 25.21307 55.44329 1090 ft 212 kts 291°
2026-05-08 12:36 25.21812 55.42892 765 ft 191 kts 290°
2026-05-08 12:36 25.22376 55.41669 581 ft 163 kts 302°
2026-05-08 12:36 25.22935 55.40712 345 ft 144 kts 300°
2026-05-08 12:36 25.23415 55.39828 145 ft 125 kts 300°
2026-05-08 12:37 25.23843 55.39042 67 ft 124 kts 301°
2026-05-08 12:37 25.24259 55.38303 60 ft 100 kts 297°
2026-05-08 12:37 25.24523 55.37809 56 ft 49 kts 300°
2026-05-08 12:37 25.24605 55.37595 54 ft 32 kts 274°
2026-05-08 12:38 25.24614 55.37476 53 ft 0 kts 274°
2026-05-08 12:38 25.24616 55.37450 54 ft 14 kts 275°
2026-05-08 12:38 25.24625 55.37305 54 ft 22 kts 279°
2026-05-08 12:39 25.24680 55.37152 50 ft 23 kts 295°
2026-05-08 12:39 25.24717 55.37089 50 ft 0 kts 303°
2026-05-08 12:39 25.24721 55.37082 50 ft 1 kts 303°
2026-05-08 12:40 25.24722 55.37081 50 ft 0 kts 303°
2026-05-08 12:41 25.24729 55.37068 50 ft 6 kts 303°
2026-05-08 12:41 25.24764 55.37012 49 ft 9 kts 303°
2026-05-08 12:42 25.24799 55.36951 50 ft 8 kts 302°
2026-05-08 12:42 25.24834 55.36881 50 ft 16 kts 294°
2026-05-08 12:42 25.24876 55.36720 50 ft 27 kts 289°
2026-05-08 12:42 25.24979 55.36503 45 ft 35 kts 302°
2026-05-08 12:43 25.25114 55.36259 40 ft 37 kts 301°
2026-05-08 12:43 25.25244 55.36026 39 ft 36 kts 302°
2026-05-08 12:43 25.25325 55.35876 41 ft 15 kts 302°
2026-05-08 12:43 25.25395 55.35751 40 ft 25 kts 301°
2026-05-08 12:44 25.25468 55.35561 33 ft 28 kts 274°
2026-05-08 12:44 25.25514 55.35354 32 ft 27 kts 302°
2026-05-08 12:44 25.25620 55.35166 34 ft 30 kts 301°
2026-05-08 12:44 25.25722 55.34973 34 ft 17 kts 300°
2026-05-08 12:45 25.25784 55.34860 34 ft 17 kts 301°
2026-05-08 12:45 25.25745 55.34763 33 ft 5 kts 212°
2026-05-08 12:45 25.25732 55.34754 33 ft 0 kts 211°
2026-05-08 12:45 25.25733 55.34755 33 ft 2 kts 209°
2026-05-08 12:46 25.25730 55.34753 33 ft 0 kts 211°